Details From ULMM - Murmansk
To EFIV - Ivalo
Flight Number -
Tags generated
Created
Modified
Stats Distance 122 nm / 225 km
Max Altitude 12,000 ft / 3,658 m
Waypoints 3
Social Downloads 1
Likes 1
Share VATSIM

Download

Looking for another format? Having issues loading an existing format? Contact us
Advertisement - Login to hide

Notes

Basic altitude profile: - Ascent Rate: 2000ft/min - Ascent Speed: 240kts - Cruise Altitude: 3000ft - Cruise Speed: 240kts - Descent Rate: 1700ft/min - Descent Speed: 240kts Options: - Use NATs: no - Use PACOTS: no - Use low airways: no - Use high airways: no

Route

ULMM 6900N03000E EFIV

ID Type Via Altitude Latitude Longitude Leg Dist Tot Dist Heading (true) Name
O ULMM APT - 0 ft / 0 m 68.78167˚ 32.75082˚ - 0 nm - Murmansk
6900N03000E LATLON - 12,000 ft / 3,658 m 69.00000˚ 30.00000˚ 60 nm 60 nm 284° / 281° -
O EFIV APT - 0 ft / 0 m 68.60661˚ 27.41923˚ 60 nm 121 nm 248° / 246° Ivalo

Altitude Profile

Advertisement - Login to hide

ULMM

Details ICAO ULMM (MMK)
Name Murmansk
Region Russia
Timezone Europe/Moscow (UTC+3.0)
Stats Elevation 266 ft / 81 m (AMSL)
Location 68.781671° 32.750821°
Runways 1
Magnetic Variation 15.948° E

METAR

ULMM 140430Z 21004MPS 9999 -SHSN BKN021CB M04/M07 Q0977 R13/690144 NOSIG RMK QFE726

Decode

TAF

TAF TAF ULMM 140155Z 1403/1503 19004G09MPS 4000 -SHSN BKN013CB TEMPO 1403/1407 22006G12MPS 2100 -SHSN DRSN BKN011CB TEMPO 1407/1412 23008G15MPS 1200 SHSN DRSN BKN006 BKN013CB TEMPO 1412/1418 23006G12MPS 3100 -SHSN DRSN BKN011CB TEMPO 1418/1503 18003MPS

Decode

Departure Runways

ID Width Length Bearing (true) Bearing (mag) Surface Threshold Offset Overrun Length
14 148 ft / 45 m 8,172 ft / 2,491 m 146.23° 130.28° Concrete 0 ft / 0 m 160 ft / 49 m
32 148 ft / 45 m 8,172 ft / 2,491 m 326.26° 310.31° Concrete 0 ft / 0 m 160 ft / 49 m

EFIV

Details ICAO EFIV (IVL)
Name Ivalo
Region Finland
Timezone Europe/Helsinki (UTC+2.0)
Stats Elevation 481 ft / 147 m (AMSL)
Location 68.606615° 27.419231°
Runways 2
Magnetic Variation 13.127° E

METAR

EFIV 140420Z AUTO 22011KT 9999 -SN FEW016 OVC048 M02/M03 Q0977

Decode

TAF

Not found

Destination Runways

ID Width Length Bearing (true) Bearing (mag) Surface Threshold Offset Overrun Length
04 148 ft / 45 m 8,173 ft / 2,491 m 46.96° 33.83° Asphalt 0 ft / 0 m 721 ft / 220 m
08 148 ft / 45 m 2,616 ft / 797 m 92.19° 79.06° Asphalt 500 ft / 152 m 0 ft / 0 m
22 148 ft / 45 m 8,173 ft / 2,491 m 227.01° 213.88° Asphalt 0 ft / 0 m 209 ft / 64 m
26 148 ft / 45 m 2,616 ft / 797 m 272.21° 259.08° Asphalt 500 ft / 152 m 0 ft / 0 m

Approach Navaids

Runway Type Ident Frequency Range Bearing (true) Bearing (mag) Slope Elevation
22 Localiser IV 109.90 MHz 18 nm / 33 km 226.96° 213.83° - 515 ft / 157 m (AMSL)
22 Glidescope IV 109.90 MHz 10 nm / 19 km 226.99° 213.86° 3.00° 481 ft / 147 m (AMSL)

Popular Alternatives